MB7UCW-13 Weather Reports


time (UTC)temp
F
wind
direction
speed
knots
gust
knots
rain 1hr
in
rain 24hr
in
rain mn
in
humidity
%
barometer
mb
20260506011503 48 59 1.7 4.3 0.00 0.00 0.00 76 1015.4
20260506010003 48 60 1.7 4.3 0.00 0.00 0.00 76 1015.5
20260506004503 48 66 0.9 2.6 0.00 0.00 0.00 75 1015.5
20260506003024 48 66 0.9 3.5 0.00 0.00 0.00 74 1015.6
20260506001503 48 70 2.6 6.1 0.00 0.00 0.00 73 1015.7
20260506000003 48 77 4.3 9.6 0.00 0.00 0.00 73 1015.6
20260505234524 48 62 5.2 9.6 0.00 0.00 0.00 74 1015.5
20260505233024 49 71 3.5 7.8 0.00 0.00 0.00 75 1015.5
20260505231503 49 55 3.5 7.0 0.00 0.00 0.00 75 1015.6
20260505230003 49 61 3.5 9.6 0.00 0.00 0.00 76 1015.5
20260505224503 49 60 4.3 9.6 0.00 0.00 0.00 76 1015.6
20260505223003 50 49 2.6 7.8 0.00 0.00 0.00 76 1015.5
20260505221524 50 52 3.5 9.6 0.00 0.00 0.00 77 1015.5
20260505220003 50 54 2.6 6.1 0.00 0.00 0.00 78 1015.6
20260505214503 50 59 3.5 8.7 0.00 0.00 0.00 78 1015.4
20260505213003 50 57 4.3 11.3 0.00 0.00 0.00 77 1015.3
20260505211503 51 52 4.3 10.4 0.00 0.00 0.00 77 1015.3
20260505210003 51 63 6.1 13.9 0.00 0.00 0.00 77 1015.1
20260505204503 51 59 6.1 13.9 0.00 0.00 0.00 77 1015.0
20260505203024 51 51 6.1 13.9 0.00 0.00 0.00 79 1014.9
20260505201524 51 321 3.5 8.7 0.00 0.00 0.00 78 1014.7
20260505200003 51 313 3.5 8.7 0.00 0.00 0.00 78 1014.8
20260505194503 52 306 4.3 7.8 0.00 0.00 0.00 77 1014.7
20260505193003 52 310 4.3 7.8 0.00 0.00 0.00 76 1014.5
20260505191503 52 313 4.3 7.8 0.00 0.00 0.00 76 1014.5
20260505190024 52 320 4.3 7.8 0.00 0.00 0.00 75 1014.4
20260505184503 53 320 4.3 10.4 0.00 0.00 0.00 74 1014.5
20260505183003 54 323 5.2 10.4 0.00 0.00 0.00 73 1014.3
20260505181524 54 331 5.2 10.4 0.00 0.00 0.00 71 1014.4
20260505180003 55 327 5.2 9.6 0.00 0.00 0.00 71 1014.4
20260505174503 55 320 4.3 9.6 0.00 0.00 0.00 72 1014.3
20260505173003 55 313 4.3 8.7 0.00 0.00 0.00 73 1014.3
20260505171503 55 309 4.3 10.4 0.00 0.00 0.00 73 1014.5
20260505170003 55 309 6.1 10.4 0.00 0.00 0.00 72 1014.4
20260505164524 55 323 3.5 8.7 0.00 0.00 0.00 74 1014.5
20260505163003 55 316 3.5 7.8 0.00 0.00 0.00 74 1014.6
20260505161524 54 332 3.5 8.7 0.00 0.00 0.00 73 1014.6
20260505153003 54 332 3.5 7.0 0.00 0.00 0.00 73 1014.6
20260505151503 54 331 4.3 7.8 0.00 0.00 0.00 72 1014.6
20260505124503 56 314 6.1 11.3 0.00 0.00 0.00 71 1014.7
20260505123024 55 321 5.2 11.3 0.00 0.00 0.00 73 1014.7
20260505121503 54 314 6.1 12.2 0.00 0.00 0.00 72 1014.8
20260505120004 53 327 7.8 13.9 0.00 0.00 0.00 71 1014.8
20260505114503 53 339 6.1 13.9 0.00 0.00 0.00 73 1014.9
20260505113003 55 320 6.1 13.9 0.00 0.00 0.00 71 1014.8
20260505111503 56 315 5.2 9.6 0.00 0.00 0.00 73 1014.9
20260505101524 53 350 6.1 13.0 0.00 0.00 0.00 75 1015.3
20260505100003 54 16 6.1 13.0 0.00 0.00 0.00 73 1015.0
20260505094524 54 9 6.1 11.3 0.00 0.00 0.00 71 1015.0
20260505093003 54 5 4.3 8.7 0.00 0.00 0.00 73 1015.1
20260505091524 53 336 4.3 8.7 0.00 0.00 0.00 74 1015.1
20260505090003 53 354 5.2 10.4 0.00 0.00 0.00 77 1015.2
20260505084524 53 353 6.1 9.6 0.00 0.00 0.00 79 1015.2
20260505083003 53 353 6.1 12.2 0.00 0.00 0.00 79 1015.2
20260505081524 53 359 5.2 11.3 0.00 0.00 0.00 79 1015.3
20260505080003 53 7 4.3 9.6 0.00 0.00 0.00 79 1015.2
20260505074524 52 4 4.3 9.6 0.00 0.00 0.00 80 1015.2
20260505073003 52 355 5.2 8.7 0.00 0.00 0.00 86 1015.2
20260505071503 50 348 2.6 7.0 0.00 0.00 0.00 92 1015.3
20260505070003 48 338 2.6 5.2 0.00 0.00 0.00 94 1015.3
20260505064503 47 343 2.6 5.2 0.00 0.00 0.00 94 1015.4
20260505063002 46 224 1.7 3.5 0.00 0.00 0.00 94 1015.4
20260505061502 45 198 0.9 2.6 0.00 0.00 0.00 95 1015.4
20260505060002 44 199 0.0 1.7 0.00 0.00 0.00 94 1015.5
20260505054523 42 196 0.0 1.7 0.00 0.00 0.00 94 1015.4
20260505053002 41 195 0.0 0.9 0.00 0.00 0.00 94 1015.3
20260505051502 40 0 0.0 0.9 0.00 0.00 0.00 94 1015.2
20260505041502 40 67 0.0 0.9 0.00 0.00 0.00 93 1015.1
20260505040002 41 0 0.0 0.0 0.00 0.00 0.00 93 1015.0
20260505034502 41 309 0.0 1.7 0.00 0.00 0.00 93 1014.9
20260505033002 42 309 1.7 2.6 0.00 0.00 0.00 93 1015.1
20260505031523 42 309 0.9 1.7 0.00 0.00 0.00 93 1015.0
20260505030002 42 309 0.0 1.7 0.00 0.00 0.00 93 1014.9
20260505024502 44 309 0.9 1.7 0.00 0.00 0.00 93 1015.1
20260505023002 44 309 0.9 2.6 0.00 0.00 0.00 93 1015.2
20260505021523 44 309 0.9 2.6 0.00 0.00 0.00 92 1015.2
20260505020002 44 309 0.9 1.7 0.00 0.00 0.00 92 1015.3
20260505014523 44 309 0.0 1.7 0.00 0.00 0.00 92 1015.4
20260505013002 44 309 0.0 1.7 0.00 0.00 0.00 92 1015.6